When you browse on this site, cookies collect data to enhance your experience and personalize the content and advertising you see.
Visit our Privacy Policy to learn more. By continuing to use the site, you agree to this use of cookies and data.

Hourly Weather Spindleruv Mlyn

Today, 10 August, Monday

Time Temperature Precipitation Wind Pressure Humidity
00:00 +15°C° 0.5 mm 2 mps 674 mmHg 93%
01:00 +15°C° 0 mm 1 mps 674 mmHg 90%
02:00 +15°C° 0.6 mm 1 mps 674 mmHg 89%
03:00 +15°C° 0.6 mm 1 mps 674 mmHg 87%
04:00 +15°C° 0.6 mm 1 mps 674 mmHg 86%
05:00 +16°C° 0.4 mm 1 mps 674 mmHg 85%
06:00 +18°C° 0.4 mm 1 mps 674 mmHg 84%
07:00 +20°C° 0 mm 1 mps 675 mmHg 80%
08:00 +21°C° 0.6 mm 1 mps 675 mmHg 77%
09:00 +21°C° 0.6 mm 2 mps 675 mmHg 75%
10:00 +21°C° 0.6 mm 2 mps 675 mmHg 72%
11:00 +23°C° 0.2 mm 2 mps 676 mmHg 69%
12:00 +23°C° 0.2 mm 2 mps 676 mmHg 66%
13:00 +23°C° 0.2 mm 2 mps 676 mmHg 63%
14:00 +23°C° 0.6 mm 2 mps 675 mmHg 67%
15:00 +21°C° 0.6 mm 2 mps 675 mmHg 71%
16:00 +20°C° 0.6 mm 2 mps 675 mmHg 74%
17:00 +20°C° 0 mm 1 mps 675 mmHg 76%
18:00 +20°C° 0 mm 1 mps 674 mmHg 78%
19:00 +19°C° 0 mm 1 mps 674 mmHg 80%
20:00 +18°C° 0.4 mm 1 mps 674 mmHg 81%
21:00 +18°C° 0.4 mm 1 mps 674 mmHg 82%
22:00 +16°C° 0.4 mm 1 mps 674 mmHg 84%
23:00 +16°C° 0.2 mm 1 mps 674 mmHg 84%

Tomorrow, 11 August, Tuesday

Time Temperature Precipitation Wind Pressure Humidity
00:00 +16°C° 0.2 mm 1 mps 674 mmHg 84%
01:00 +15°C° 0.2 mm 1 mps 675 mmHg 84%
02:00 +15°C° 0.1 mm 1 mps 674 mmHg 84%
03:00 +15°C° 0.1 mm 1 mps 674 mmHg 85%
04:00 +14°C° 0.1 mm 1 mps 674 mmHg 85%
05:00 +15°C° 0.1 mm 1 mps 675 mmHg 83%
06:00 +18°C° 0.1 mm 1 mps 675 mmHg 82%
07:00 +19°C° 0.1 mm 1 mps 676 mmHg 80%
08:00 +19°C° 0 mm 2 mps 676 mmHg 73%
09:00 +21°C° 0 mm 2 mps 676 mmHg 66%
10:00 +22°C° 0 mm 3 mps 677 mmHg 58%
11:00 +22°C° 0.1 mm 3 mps 677 mmHg 58%
12:00 +24°C° 0.1 mm 3 mps 677 mmHg 58%
13:00 +24°C° 0.1 mm 3 mps 677 mmHg 58%
14:00 +24°C° 0.5 mm 3 mps 677 mmHg 60%
15:00 +22°C° 0.5 mm 3 mps 676 mmHg 61%
16:00 +22°C° 0.5 mm 3 mps 676 mmHg 62%
17:00 +21°C° 0.1 mm 3 mps 676 mmHg 69%
18:00 +19°C° 0.1 mm 2 mps 676 mmHg 75%
19:00 +18°C° 0.1 mm 2 mps 675 mmHg 81%
20:00 +17°C° 0 mm 2 mps 675 mmHg 82%
21:00 +16°C° 0 mm 2 mps 675 mmHg 82%
22:00 +15°C° 0 mm 2 mps 675 mmHg 83%
23:00 +14°C° 0 mm 2 mps 675 mmHg 84%

Day after tomorrow, 12 August, Wednesday

Time Temperature Precipitation Wind Pressure Humidity
00:00 +14°C° 0 mm 2 mps 675 mmHg 85%
01:00 +14°C° 0 mm 2 mps 675 mmHg 85%
02:00 +13°C° 0 mm 1 mps 675 mmHg 86%
03:00 +13°C° 0 mm 1 mps 675 mmHg 87%
04:00 +13°C° 0 mm 1 mps 675 mmHg 88%
05:00 +14°C° 0 mm 1 mps 675 mmHg 84%
06:00 +16°C° 0 mm 1 mps 676 mmHg 80%
07:00 +18°C° 0 mm 1 mps 676 mmHg 76%
08:00 +19°C° 0 mm 1 mps 676 mmHg 70%
09:00 +20°C° 0 mm 2 mps 677 mmHg 63%
10:00 +21°C° 0 mm 3 mps 677 mmHg 57%
11:00 +21°C° 0 mm 3 mps 677 mmHg 56%
12:00 +22°C° 0 mm 3 mps 677 mmHg 54%
13:00 +22°C° 0 mm 3 mps 677 mmHg 53%
14:00 +22°C° 0 mm 3 mps 677 mmHg 54%
15:00 +22°C° 0 mm 3 mps 677 mmHg 55%
16:00 +22°C° 0 mm 3 mps 676 mmHg 55%
17:00 +20°C° 0 mm 3 mps 676 mmHg 62%
18:00 +18°C° 0 mm 2 mps 675 mmHg 68%
19:00 +17°C° 0 mm 2 mps 675 mmHg 75%
20:00 +16°C° 0 mm 2 mps 674 mmHg 74%
21:00 +15°C° 0 mm 2 mps 674 mmHg 73%
22:00 +14°C° 0 mm 2 mps 674 mmHg 73%
23:00 +14°C° 0 mm 1 mps 674 mmHg 72%

13 August, Thursday

Time Temperature Precipitation Wind Pressure Humidity
00:00 +13°C° 0 mm 1 mps 674 mmHg 72%
01:00 +13°C° 0 mm 1 mps 674 mmHg 72%
02:00 +13°C° 0 mm 1 mps 674 mmHg 72%
03:00 +12°C° 0 mm 1 mps 673 mmHg 73%
04:00 +12°C° 0 mm 1 mps 673 mmHg 74%
05:00 +14°C° 0 mm 1 mps 673 mmHg 71%
06:00 +15°C° 0 mm 1 mps 674 mmHg 69%
07:00 +16°C° 0 mm 1 mps 674 mmHg 66%
08:00 +19°C° 0 mm 1 mps 674 mmHg 61%
09:00 +21°C° 0 mm 1 mps 675 mmHg 56%
10:00 +21°C° 0 mm 2 mps 675 mmHg 51%
11:00 +23°C° 0 mm 2 mps 675 mmHg 51%
12:00 +24°C° 0 mm 2 mps 675 mmHg 51%
13:00 +25°C° 0 mm 2 mps 675 mmHg 51%
14:00 +25°C° 0 mm 2 mps 674 mmHg 52%
15:00 +24°C° 0 mm 2 mps 674 mmHg 53%
16:00 +24°C° 0 mm 2 mps 674 mmHg 54%
17:00 +23°C° 0 mm 2 mps 673 mmHg 63%
18:00 +21°C° 0 mm 1 mps 673 mmHg 71%
19:00 +19°C° 0 mm 1 mps 672 mmHg 80%
20:00 +18°C° 0 mm 1 mps 672 mmHg 82%
21:00 +18°C° 0 mm 1 mps 672 mmHg 85%
22:00 +16°C° 0 mm 1 mps 671 mmHg 87%
23:00 +16°C° 0.1 mm 1 mps 671 mmHg 87%

14 August, Friday

Time Temperature Precipitation Wind Pressure Humidity
00:00 +15°C° 0.1 mm 1 mps 671 mmHg 87%
01:00 +15°C° 0.1 mm 1 mps 671 mmHg 87%
02:00 +15°C° 0 mm 1 mps 671 mmHg 88%
03:00 +15°C° 0 mm 1 mps 671 mmHg 88%
04:00 +14°C° 0 mm 1 mps 671 mmHg 89%
05:00 +15°C° 0 mm 1 mps 671 mmHg 86%
06:00 +18°C° 0 mm 1 mps 671 mmHg 83%
07:00 +19°C° 0 mm 1 mps 671 mmHg 80%
08:00 +20°C° 0 mm 1 mps 672 mmHg 75%
09:00 +22°C° 0 mm 1 mps 672 mmHg 69%
10:00 +23°C° 0 mm 1 mps 673 mmHg 63%
11:00 +23°C° 0.4 mm 1 mps 672 mmHg 65%
12:00 +23°C° 0.4 mm 1 mps 672 mmHg 66%
13:00 +23°C° 0.4 mm 1 mps 672 mmHg 68%
14:00 +23°C° 0.9 mm 1 mps 672 mmHg 68%
15:00 +23°C° 0.9 mm 1 mps 672 mmHg 69%
16:00 +23°C° 0.9 mm 1 mps 672 mmHg 69%
17:00 +21°C° 0.7 mm 1 mps 671 mmHg 74%
18:00 +20°C° 0.7 mm 1 mps 671 mmHg 79%
19:00 +19°C° 0.7 mm 1 mps 670 mmHg 84%
20:00 +18°C° 0.1 mm 1 mps 670 mmHg 87%
21:00 +16°C° 0.1 mm 1 mps 670 mmHg 90%
22:00 +15°C° 0.1 mm 1 mps 670 mmHg 93%
23:00 +15°C° 0.1 mm 1 mps 670 mmHg 93%

15 August, Saturday

Time Temperature Precipitation Wind Pressure Humidity
00:00 +14°C° 0.1 mm 1 mps 670 mmHg 94%
01:00 +14°C° 0.1 mm 1 mps 670 mmHg 94%
02:00 +14°C° 0.2 mm 1 mps 670 mmHg 94%
03:00 +14°C° 0.2 mm 1 mps 670 mmHg 94%
04:00 +14°C° 0.2 mm 1 mps 670 mmHg 94%
05:00 +15°C° 0.1 mm 1 mps 670 mmHg 93%
06:00 +15°C° 0.1 mm 1 mps 670 mmHg 92%
07:00 +16°C° 0.1 mm 1 mps 671 mmHg 91%
08:00 +18°C° 0.2 mm 1 mps 671 mmHg 88%
09:00 +18°C° 0.2 mm 2 mps 672 mmHg 86%
10:00 +18°C° 0.2 mm 2 mps 672 mmHg 83%
11:00 +19°C° 0.4 mm 2 mps 672 mmHg 80%
12:00 +20°C° 0.4 mm 2 mps 672 mmHg 76%
13:00 +20°C° 0.4 mm 2 mps 672 mmHg 73%
14:00 +20°C° 1 mm 2 mps 672 mmHg 75%
15:00 +20°C° 1 mm 2 mps 672 mmHg 76%
16:00 +20°C° 1 mm 2 mps 672 mmHg 78%
17:00 +19°C° 0.7 mm 2 mps 672 mmHg 82%
18:00 +17°C° 0.7 mm 2 mps 672 mmHg 86%
19:00 +16°C° 0.7 mm 1 mps 671 mmHg 91%
20:00 +16°C° 0.2 mm 1 mps 671 mmHg 91%
21:00 +15°C° 0.2 mm 1 mps 672 mmHg 91%
22:00 +15°C° 0.2 mm 1 mps 672 mmHg 91%
23:00 +15°C° 0.1 mm 1 mps 672 mmHg 91%
Show more